This is the latest recevied weather packets stored in our database for station/object DC5DM-13. If no packets are shown the sender has not sent any weather packets the latest 10 day(s).
| Time | Temp. | Humidity | Pressure | Rain* | Wind** | Luminosity | Snow |
|---|---|---|---|---|---|---|---|
| 1777514441 | 6.11° C | 49% | 1028.8 hPa | 0 mm | - | - | - |
| 1777513873 | 6.11° C | 49% | 1028.8 hPa | 0 mm | - | - | - |
| 1777513230 | 5.56° C | 50% | 1028.6 hPa | 0 mm | - | - | - |
| 1777512652 | 5.56° C | 52% | 1028.7 hPa | 0 mm | - | - | - |
| 1777512082 | 5.56° C | 52% | 1028.6 hPa | 0 mm | - | - | - |
| 1777511452 | 6.11° C | 51% | 1028.6 hPa | 0 mm | - | - | - |
| 1777510882 | 6.11° C | 51% | 1028.5 hPa | 0 mm | - | - | - |
| 1777510252 | 6.67° C | 49% | 1028.5 hPa | 0 mm | - | - | - |
| 1777509682 | 6.67° C | 48% | 1028.6 hPa | 0 mm | - | - | - |
| 1777509052 | 6.67° C | 49% | 1028.5 hPa | 0 mm | - | - | - |
| 1777508482 | 6.67° C | 49% | 1028.6 hPa | 0 mm | - | - | - |
| 1777507853 | 6.67° C | 48% | 1028.6 hPa | 0 mm | - | - | - |
| 1777507282 | 7.22° C | 48% | 1028.3 hPa | 0 mm | - | - | - |
| 1777506652 | 7.22° C | 48% | 1028.4 hPa | 0 mm | - | - | - |
| 1777506082 | 7.22° C | 47% | 1028.3 hPa | 0 mm | - | - | - |
| 1777505453 | 7.22° C | 48% | 1028.2 hPa | 0 mm | - | - | - |
| 1777504882 | 7.78° C | 47% | 1028.2 hPa | 0 mm | - | - | - |
| 1777504252 | 7.78° C | 48% | 1028.2 hPa | 0 mm | - | - | - |
| 1777503683 | 7.78° C | 46% | 1028.2 hPa | 0 mm | - | - | - |
| 1777503052 | 7.78° C | 47% | 1028.2 hPa | 0 mm | - | - | - |
| 1777502476 | 7.78° C | 48% | 1028 hPa | 0 mm | - | - | - |
| 1777501844 | 8.33° C | 47% | 1028 hPa | 0 mm | - | - | - |
| 1777501276 | 8.33° C | 48% | 1027.9 hPa | 0 mm | - | - | - |
| 1777500650 | 8.33° C | 49% | 1027.7 hPa | 0 mm | - | - | - |
| 1777500076 | 7.78° C | 49% | 1027.8 hPa | 0 mm | - | - | - |
* Rain latest hour (hover to see other rain measurements)
** Current wind speed in m/s (hover to see current wind gust speed)